Waarnemingen

Advertentie
Mijn weer
Oostende Airport, België (6407): temperatuur & dauwpunt: 15.06.2018 02:00:00 - 21.06.2018 02:00:00 (CEST)Oostende Airport, België (6407): windsnelheid & windstoten: 15.06.2018 02:00:00 - 21.06.2018 02:00:00 (CEST)Oostende Airport, België (6407): windrichting: 15.06.2018 02:00:00 - 21.06.2018 02:00:00 (CEST)Oostende Airport, België (6407): luchtdruk: 15.06.2018 02:00:00 - 21.06.2018 02:00:00 (CEST)Oostende Airport, België (6407): zicht: 15.06.2018 02:00:00 - 21.06.2018 02:00:00 (CEST)
Datum & Tijd tt [°C] td [°C] ff [km/u] ff [kn] fx [km/u] fx [kn] dd ppp [hPa] vv [km]
21.06.2018 02:00:00 15,7 13,5 25 14 - - WZW 1018,5 20
21.06.2018 01:00:00 15,7 13,3 24 13 32 18 WZW 1018,6 10
21.06.2018 00:00:00 15,7 13,1 21 11 32 18 W 1018,9 10
20.06.2018 23:00:00 16,3 13,4 16 9 - - WZW 1019,1 10
20.06.2018 22:00:00 18,0 14,4 15 8 25 14 ZW 1018,9 10
20.06.2018 21:00:00 19,1 14,9 22 12 32 18 W 1019,3 10
20.06.2018 20:00:00 20,4 15,8 15 8 - - W 1019,7 10
20.06.2018 19:00:00 20,5 15,4 16 9 25 14 WZW 1020,1 10
20.06.2018 18:00:00 19,1 15,0 28 15 36 19 W 1020,5 10
20.06.2018 17:00:00 20,4 15,7 21 11 - - W 1020,9 10
20.06.2018 16:00:00 19,3 14,8 26 14 32 18 W 1021,2 10
20.06.2018 15:00:00 20,9 15,9 15 8 22 12 W 1021,3 10
20.06.2018 14:00:00 18,7 14,8 22 12 - - W 1022,1 10
20.06.2018 13:00:00 18,5 14,2 18 10 29 16 W 1022,6 10
20.06.2018 12:00:00 18,9 14,3 21 11 29 16 ZW 1022,6 10
20.06.2018 11:00:00 16,9 13,6 21 11 - - ZW 1022,6 10
20.06.2018 10:00:00 15,5 13,1 14 8 22 12 ZZW 1022,8 9
20.06.2018 09:00:00 14,8 12,7 16 9 25 14 ZW 1022,9 7
20.06.2018 08:00:00 14,7 12,7 16 9 - - ZZW 1022,8 8
20.06.2018 07:00:00 15,1 12,7 16 9 22 12 ZZW 1022,8 10
20.06.2018 06:00:00 15,0 12,7 15 8 22 12 ZW 1022,9 10
20.06.2018 05:00:00 15,0 12,8 13 7 - - ZW 1023,0 10
20.06.2018 04:00:00 14,5 12,5 13 7 18 10 ZZW 1023,2 10
20.06.2018 03:00:00 13,7 11,6 11 6 14 8 ZZW 1023,6 22
20.06.2018 02:00:00 14,3 12,2 13 7 - - ZZW 1024,1 10
20.06.2018 01:00:00 15,3 12,7 16 9 22 12 ZW 1024,3 10
20.06.2018 00:00:00 15,4 12,8 5 3 11 6 ZZW 1024,5 10
19.06.2018 23:00:00 15,4 13,1 15 8 - - ZZW 1024,5 10
19.06.2018 22:00:00 17,3 13,8 11 6 14 8 ZW 1024,3 10
19.06.2018 21:00:00 18,0 14,6 13 7 18 10 W 1024,2 10
19.06.2018 20:00:00 17,9 14,5 11 6 - - W 1024,4 10
19.06.2018 19:00:00 18,4 14,4 11 6 18 10 W 1024,5 10
19.06.2018 18:00:00 16,6 13,9 14 8 18 10 W 1024,9 22
19.06.2018 17:00:00 18,4 14,7 9 5 - - W 1024,9 10
19.06.2018 16:00:00 17,5 14,2 16 9 22 12 W 1025,1 10
19.06.2018 15:00:00 17,8 14,6 15 8 22 12 W 1025,1 10
19.06.2018 14:00:00 17,1 14,1 16 9 - - W 1025,2 10
19.06.2018 13:00:00 17,1 14,2 16 9 22 12 W 1025,1 10
19.06.2018 12:00:00 17,0 14,2 16 9 22 12 W 1024,9 10
19.06.2018 11:00:00 17,2 14,2 21 11 - - W 1024,8 10
19.06.2018 10:00:00 17,0 14,1 22 12 29 16 W 1024,6 10
19.06.2018 09:00:00 16,6 13,9 22 12 29 16 W 1024,2 9
19.06.2018 08:00:00 16,4 13,6 15 8 - - WZW 1023,6 10
19.06.2018 07:00:00 15,9 13,4 15 8 22 12 ZW 1023,1 10
19.06.2018 06:00:00 15,8 13,4 16 9 29 16 WZW 1022,9 10
19.06.2018 05:00:00 15,7 13,3 22 12 - - WZW 1022,4 10
19.06.2018 04:00:00 15,1 12,7 14 8 29 16 ZW 1022,1 10
19.06.2018 03:00:00 14,6 12,5 14 8 22 12 ZW 1021,9 10
19.06.2018 02:00:00 14,1 12,2 22 12 - - WZW 1021,9 10
19.06.2018 01:00:00 13,9 11,7 21 11 32 18 ZW 1021,6 10
19.06.2018 00:00:00 13,4 10,9 21 11 29 16 ZW 1022,0 10
18.06.2018 23:00:00 14,0 10,5 21 11 - - ZW 1021,9 10
18.06.2018 22:00:00 14,7 10,3 24 13 36 19 ZW 1021,7 10
18.06.2018 21:00:00 16,4 11,3 24 13 36 19 ZW 1021,6 10
18.06.2018 20:00:00 17,9 11,8 24 13 - - ZW 1021,1 10
18.06.2018 19:00:00 18,3 12,1 22 12 32 18 WZW 1021,3 10
18.06.2018 18:00:00 18,4 12,0 26 14 36 19 ZW 1021,2 10
18.06.2018 17:00:00 18,0 11,9 29 16 - - ZW 1021,3 10
18.06.2018 16:00:00 16,6 12,1 29 16 39 21 WZW 1021,8 20
18.06.2018 15:00:00 16,2 12,2 24 13 32 18 WZW 1021,4 10
18.06.2018 14:00:00 15,9 12,4 26 14 - - WZW 1021,4 10
18.06.2018 13:00:00 16,5 12,4 21 11 29 16 WZW 1021,0 10
18.06.2018 12:00:00 16,3 12,1 28 15 36 19 ZW 1020,6 10
18.06.2018 11:00:00 16,8 12,6 26 14 - - WZW 1020,4 10
18.06.2018 10:00:00 15,9 13,3 29 16 40 21 WZW 1020,2 4,5
18.06.2018 09:00:00 16,3 13,4 21 11 29 16 ZW 1019,4 10
18.06.2018 08:00:00 15,6 13,1 18 10 - - ZW 1019,2 10
18.06.2018 07:00:00 14,8 12,8 13 7 18 10 ZZW 1018,9 10
18.06.2018 06:00:00 14,3 12,5 13 7 25 14 ZZW 1019,1 7
18.06.2018 05:00:00 14,4 12,1 16 9 - - ZZW 1018,8 10
18.06.2018 04:00:00 14,3 11,6 16 9 22 12 ZZW 1019,0 7
18.06.2018 03:00:00 14,6 11,6 22 12 32 18 ZW 1019,3 10
18.06.2018 02:00:00 14,5 11,4 15 8 - - ZZW 1019,4 10
18.06.2018 01:00:00 14,6 11,0 18 10 29 16 ZW 1019,7 10
18.06.2018 00:00:00 14,8 10,5 22 12 29 16 ZW 1019,8 20
17.06.2018 23:00:00 14,7 10,0 13 7 - - ZZW 1019,8 10
17.06.2018 22:00:00 14,7 9,7 16 9 25 14 ZW 1019,6 10
17.06.2018 21:00:00 15,3 9,3 21 11 29 16 ZW 1019,6 10
17.06.2018 20:00:00 15,8 9,1 26 14 - - WZW 1019,6 10
17.06.2018 19:00:00 16,8 9,6 26 14 36 19 WZW 1019,1 10
17.06.2018 18:00:00 16,7 9,7 28 15 40 21 W 1019,5 10
17.06.2018 17:00:00 17,2 9,5 24 13 - - WZW 1019,2 10
17.06.2018 16:00:00 17,1 11,8 28 15 43 23 W 1019,0 10
17.06.2018 15:00:00 16,8 11,3 26 14 36 19 W 1019,0 10
17.06.2018 14:00:00 16,0 11,6 26 14 - - W 1018,7 10
17.06.2018 13:00:00 15,6 10,6 22 12 32 18 W 1018,4 10
17.06.2018 12:00:00 15,9 11,1 18 10 36 19 ZW 1018,0 10
17.06.2018 11:00:00 14,9 10,3 22 12 - - WZW 1018,1 10
17.06.2018 10:00:00 14,2 10,6 21 11 29 16 ZW 1018,0 10
17.06.2018 09:00:00 13,8 10,5 18 10 29 16 ZW 1017,4 10
17.06.2018 08:00:00 13,3 10,2 18 10 - - ZZW 1016,8 10
17.06.2018 07:00:00 12,7 10,0 16 9 22 12 ZW 1016,6 10
17.06.2018 06:00:00 12,0 9,4 15 8 18 10 ZZW 1016,5 9
17.06.2018 05:00:00 12,1 9,4 16 9 - - ZW 1016,4 9
17.06.2018 04:00:00 12,4 9,4 18 10 25 14 ZW 1016,5 10
17.06.2018 03:00:00 12,2 9,4 15 8 22 12 ZW 1016,0 10
17.06.2018 02:00:00 12,0 9,4 13 7 - - ZZW 1016,0 10
17.06.2018 01:00:00 11,7 9,2 13 7 14 8 ZZW 1015,9 10
17.06.2018 00:00:00 12,7 9,1 14 8 18 10 ZW 1016,1 18
16.06.2018 23:00:00 14,5 9,5 13 7 - - ZZW 1015,9 10
16.06.2018 22:00:00 15,6 9,7 15 8 22 12 ZW 1015,9 10
16.06.2018 21:00:00 16,2 9,9 26 14 36 19 WZW 1016,2 10
16.06.2018 20:00:00 16,4 9,5 26 14 - - WZW 1016,1 10
16.06.2018 19:00:00 17,4 9,7 28 15 40 21 W 1016,1 10
16.06.2018 18:00:00 17,2 10,6 28 15 43 23 W 1016,2 10
16.06.2018 17:00:00 16,6 10,1 34 18 - - W 1016,3 10
16.06.2018 16:00:00 16,9 10,6 29 16 40 21 W 1016,1 10
16.06.2018 15:00:00 17,9 11,2 34 18 43 23 W 1016,3 10
16.06.2018 14:00:00 16,9 9,2 31 17 - - W 1016,2 10
16.06.2018 13:00:00 16,2 10,9 28 15 40 21 W 1016,2 10
16.06.2018 12:00:00 16,3 11,4 24 13 29 16 W 1016,1 10
16.06.2018 11:00:00 16,7 11,3 18 10 - - WZW 1015,9 10
16.06.2018 10:00:00 14,8 11,5 13 7 22 12 WZW 1016,1 10
16.06.2018 09:00:00 13,6 11,1 16 9 25 14 ZW 1016,0 8
16.06.2018 08:00:00 12,3 10,1 11 6 - - ZZW 1015,4 6
16.06.2018 07:00:00 12,0 9,7 14 8 18 10 Z 1015,6 6
16.06.2018 06:00:00 11,2 9,1 11 6 14 8 ZZW 1015,7 6
16.06.2018 05:00:00 10,6 8,5 11 6 - - Z 1015,9 9
16.06.2018 04:00:00 11,1 8,7 11 6 14 8 ZZW 1016,2 9
16.06.2018 03:00:00 11,5 8,2 14 8 18 10 Z 1016,3 15
16.06.2018 02:00:00 11,5 8,2 11 6 - - Z 1016,8 15
16.06.2018 01:00:00 11,6 8,1 43 23 11 6 ZZW 1016,9 15
16.06.2018 00:00:00 11,8 8,3 11 6 14 8 ZW 1017,0 10
15.06.2018 23:00:00 13,7 10,7 8 4 - - ZZW 1017,2 10
15.06.2018 22:00:00 14,7 11,6 5 3 7 4 W 1016,9 10
15.06.2018 21:00:00 16,0 10,6 13 7 14 8 NW 1017,1 10
15.06.2018 20:00:00 16,9 11,7 9 5 - - WNW 1017,2 10
15.06.2018 19:00:00 17,1 11,8 16 9 25 14 NW 1017,4 10
15.06.2018 18:00:00 17,6 12,4 21 11 29 16 WNW 1017,6 10
15.06.2018 17:00:00 17,5 12,8 25 14 - - WNW 1017,5 15
15.06.2018 16:00:00 18,9 13,7 18 10 25 14 WNW 1017,3 10
15.06.2018 15:00:00 18,8 13,6 18 10 22 12 NW 1017,5 10
15.06.2018 14:00:00 18,6 14,0 13 7 - - NW 1017,4 10
15.06.2018 13:00:00 18,3 13,8 11 6 14 8 NW 1017,4 10
15.06.2018 12:00:00 18,6 14,1 9 5 14 8 WNW 1017,4 10
15.06.2018 11:00:00 18,3 12,7 9 5 - - ZZW 1017,3 10
15.06.2018 10:00:00 16,5 11,9 8 4 14 8 ZZW 1017,2 10
15.06.2018 09:00:00 14,1 11,1 8 4 11 6 ZZW 1016,8 10
15.06.2018 08:00:00 12,6 10,5 8 4 - - Z 1016,7 7
15.06.2018 07:00:00 10,7 8,7 8 4 11 6 Z 1016,4 7
15.06.2018 06:00:00 10,1 8,4 9 5 11 6 Z 1016,0 7
15.06.2018 05:00:00 9,8 7,9 8 4 - - ZZW 1016,0 7
15.06.2018 04:00:00 9,6 7,9 8 4 11 6 Z 1016,0 8
15.06.2018 03:00:00 10,0 7,8 5 3 7 4 Z 1016,1 10
15.06.2018 02:00:00 11,8 9,6 11 6 - - Z 1016,0 10

tt = temperatuur
td = dauwpunt
ff = windsnelheid
fx = windstoten
dd = windrichting
ppp = luchtdruk
vv = zicht

Weerstations in de omgeving